Torna al catalogo

SL-8 R/B

AttivoPO
NORAD 21797·ROCKET BODY·🇷🇺 Russia

Lanciato Nov 27, 1991 da Plesetsk Cosmodrome

Loading…

Prossimi Passaggi (prossime 24 ore)

TLE

AggiornatoSource: Space-Track

Epoca: Sep 14, 2026, 11:51 UTC

1 21797U 91081B   26257.49443205  .00000131  00000-0  11534-3 0  9990
2 21797  82.9491  73.9476 0037576 348.1585  39.9778 13.77893251748984

Traccia SL-8 R/B in tempo reale con AllMySat

Download on the App Store